Regional Weather Roundup
Issued by NWS Sterling, VA

Home | Current Version | Previous Version | Text Only | Print | Product List | Glossary Off
Versions: 1 2 3 4 5 6 7 8 9 10 11 12 13 14 15 16 17 18 19 20 21 22 23 24 25 26 27 28 29 30 31 32 33 34 35 36 37 38 39 40 41 42 43 44 45 46 47 48 49 50

000
ASUS41 KLWX 011610
RWRLWX

REGIONAL WEATHER ROUNDUP
NATIONAL WEATHER SERVICE BALTIMORE MD/WASHINGTON DC
1100 AM EST SUN FEB 01 2015

Note: "FAIR" indicates few or no clouds below 12,000 feet
with no significant weather and/or obstructions to visibility.
 TC=TEMPERATURE CELSIUS

 * =Non NWS site. Station does not report precipitation (e.g. rain,
    snow, etc.), thunder, or fog.

DCZ001-MDZ009-015-VAZ040>042-051-053>054-011700-
WASHINGTON METRO

CITY           SKY/WX    TMP DP  RH WIND       PRES   REMARKS
WASHINGTON NAT CLOUDY    36  20  52 S6        30.28S
DULLES         CLOUDY    34  12  40 S9        30.25F WCI  27
ANDREWS AFB    CLOUDY    35  16  47 SW5       30.26S
FT BELVOIR     CLOUDY    36  15  43 SE5       30.28S
QUANTICO       CLOUDY    33  19  56 S5        30.29F
COLLEGE PARK*  CLOUDY    36  14  41 S3        30.26F
LEESBURG*      CLOUDY    36  27  69 S6        30.24F
MANASSAS*      CLOUDY    30  18  59 CALM      30.27S
GAITHERSBURG*  CLOUDY    36  18  48 SW6       30.27S

$$

MDZ006>007-011-014-011700-
BALTIMORE METRO

CITY           SKY/WX    TMP DP  RH WIND       PRES   REMARKS
BWI AIRPORT    CLOUDY    36  16  44 S6        30.25F
MD SCIENCE CTR   N/A     37  15  40 MISG      30.26F
MARTIN STATE   CLOUDY    37  18  44 SW3       30.28F
ANNAPOLIS      CLOUDY    36  11  35 S7        30.27F
FORT MEADE*    CLOUDY    34  19  55 S3        30.28F

$$

MDZ012-015-019>023-011700-
MARYLAND EASTERN SHORE

CITY           SKY/WX    TMP DP  RH WIND       PRES   REMARKS
OCEAN CITY     CLOUDY    35  17  47 SW6       30.29F
SALISBURY      MOSUNNY   41  15  35 VRB5      30.27F
BAY BRIDGE AP*   N/A     36  12  38 S6        30.28S
CAMBRIDGE*     PTSUNNY   37  21  52 CALM      30.27F
EASTON*        PTSUNNY   37  21  52 CALM      30.31S

$$

MDZ017>025-011700-
SOUTHERN MARYLAND

CITY           SKY/WX    TMP DP  RH WIND       PRES   REMARKS
PATUXENT RIVER PTSUNNY   38  18  44 SE9       30.28S
ST INIGOES     NOT AVBL
LEONARDTOWN*   PTSUNNY   37  16  41 S3        30.29R

$$

MDZ003>005-011700-
NORTH CENTRAL MARYLAND

CITY           SKY/WX    TMP DP  RH WIND       PRES   REMARKS
FREDERICK*     NOT AVBL
HAGERSTOWN APT CLOUDY    35  17  47 E3        30.19F
WESTMINSTER*   CLOUDY    36  19  51 W5        30.20F

$$

MDZ501>502-011700-
WESTERN MARYLAND

CITY           SKY/WX    TMP DP  RH WIND       PRES   REMARKS
OAKLAND*       FOG       32 N/A N/A SW12      30.06F VSB 3/4 WCI  23
CUMBERLAND*    CLOUDY    32  23  69 CALM      30.20F

$$

VAZ025>031-011700-
SHENANDOAH VALLEY

CITY           SKY/WX    TMP DP  RH WIND       PRES   REMARKS
WINCHESTER*    CLOUDY    36  12  38 S5        30.19F
FRONT ROYAL*   CLOUDY    34  18  51 CALM      30.18F
LURAY*         CLOUDY    36  23  60 S3        30.19F
NEW MARKET*    CLOUDY    35  19  52 SW5       30.18F
STAUNTON*      CLOUDY    43  10  26 S5        30.20F
WAYNESBORO*    CLOUDY    42  10  26 S5        30.18F

$$

WVZ021-048>050-054>055-011700-
EASTERN WEST VIRGINIA PANHANDLE

CITY           SKY/WX    TMP DP  RH WIND       PRES   REMARKS
MARTINSBURG    CLOUDY    36  18  48 S3        30.21F
PETERSBURG*    CLOUDY    32  20  60 CALM      30.17F

$$

VAZ036>039-050-011700-
CENTRAL FOOTHILLS

CITY           SKY/WX    TMP DP  RH WIND       PRES   REMARKS
CHARLOTTESVILL CLOUDY    37  12  35 S5        30.25F
CULPEPER*      CLOUDY    36  16  44 SW6       30.26F
ORANGE*        CLOUDY    36  19  51 S6        30.27F
GORDONSVILLE*  CLOUDY    35  16  46 SW5       30.25F
WARRENTON*     CLOUDY    35  21  57 SW7       30.25F

$$

VAZ055>057-011700-
NORTH AND CENTRAL PIEDMONT

CITY           SKY/WX    TMP DP  RH WIND       PRES   REMARKS
FREDERICKSBRG* CLOUDY    38  14  37 S8        30.27F
STAFFORD*      CLOUDY    36  10  34 CALM      30.31F

$$

NCZ024-NYZ072-PAZ021-071-VAZ022-071-011700-
OTHER REGIONAL OBSERVATIONS

CITY           SKY/WX    TMP DP  RH WIND       PRES   REMARKS
NEW YORK CITY  MOSUNNY   34  17  50 W5        30.22F
PHILADELPHIA   CLOUDY    35  19  52 W12       30.26F WCI  27
PITTSBURGH     LGT SNOW  30  27  88 SE6       30.11F FOG
ROANOKE        CLOUDY    43  11  27 CALM      30.20F
RICHMOND       PTSUNNY   40  23  50 S6        30.29R
RALEIGH        CLOUDY    47  23  38 SW9       30.26F

$$

ANZ530>537-011700-
MARINE OBSERVATIONS

STATION/POSITION TIME  TEMP    WIND        PRES
                       AIR SEA DIR/SP/G
                 (UTC) (F)     (DEG/KT/KT) (MB)
THOMAS PT LIGHT  1600   32 35  200/  4/  4 1026.3F
BALT KEY BRIDGE  1600   34     260/  2/  3 1024.8S
COVE POINT       1600   34     190/ 11/ 13 1025.2R
LEWISETTA        1600   38 33  190/  5/  7 1025.1R
SOLOMONS ISLAND  1600      36                N/A
PINEY POINT      1600          150/  6/  7   N/A

$$




USA.gov is the U.S. government's official web portal to all federal, state and local government web resources and services.